Location: K�ln
(50.9455°N, 6.9544°E)
Time: 12:46:20
(UTC+01:00)

ISS - Visible Passes

Search period start: 23 February 2017 00:00
Search period end: 05 March 2017 00:00
Orbit: 399 x 408 km, 51.6° (Epoch: 23 February)

Date Brightness Start Highest point End Pass type
(mag) Time Alt. Az. Time Alt. Az. Time Alt. Az.
02 Mar -0.5 06:39:11 10° S 06:41:28 17° SE 06:43:45 10° E visible
03 Mar -0.2 05:48:13 10° SSE 05:49:07 11° SE 05:50:02 10° ESE visible
04 Mar -1.6 06:29:31 10° SSW 06:32:27 30° SSE 06:35:24 10° E visible
